[[{"header":{"parameterUnit":"m.s-1","parameterCategory":1,"la1":30.2991,"la2":30.254,"lo1":-89.0895,"lo2":-89.0444,"dy":0.0017,"dx":0.0017,"nx":28,"ny":28,"refTime":"2025-12-25T03:00:00:Z","depth":0,"parameterNumber":2,"parameterNumberName":"U-component_of_WINDS"},"data":[0,0,0,0,0,0,0,0,0,0,0,0,0,0,0,0,0,0,0,0,0,0,0,0,0,0,0,0,0,0,0,0,0,0,0,0,0,0,0,0,0,0,0,0,0,0,0,0,0,0,0,0,0,0,0,0,0,0,-0.6133,-0.6133,0,-0.6104,-0.6104,-0.6104,-0.6054,-0.6053,-0.6052,-0.6051,-0.6021,-0.6022,-0.6022,0,0,0,0,0,0,0,0,0,0,0,0,0,-0.6146,-0.6146,-0.6133,-0.6133,-0.6132,-0.6104,-0.6104,-0.6103,-0.6054,-0.6053,-0.6052,-0.6051,-0.6021,-0.6022,-0.6022,0,0,0,0,0,0,0,0,0,0,0,0,0,-0.6131,-0.6146,-0.6133,-0.6104,-0.6101,-0.6104,-0.6104,-0.6103,-0.6054,-0.6053,-0.6051,-0.605,-0.6021,-0.6022,-0.6022,-0.6051,0,0,-0.6022,-0.6022,0,0,0,0,0,0,0,0,-0.6132,-0.6131,-0.6109,-0.6106,-0.6103,-0.6081,-0.6098,-0.6086,-0.6054,-0.6072,-0.6051,-0.6049,-0.6042,-0.6041,-0.6038,-0.6049,-0.6048,-0.6022,-0.6022,-0.6022,-0.6022,0,0,0,0,0,0,0,-0.6133,-0.6132,-0.6122,-0.6109,-0.6105,-0.6093,-0.6089,-0.6095,-0.6065,-0.607,-0.6067,-0.6064,-0.6041,-0.6038,-0.6037,-0.6047,-0.6022,-0.6022,-0.6022,-0.6022,-0.6082,-0.6084,0,0,0,0,0,0,-0.6138,-0.6133,-0.6122,-0.6121,-0.6114,-0.6094,-0.609,-0.609,-0.6065,-0.606,-0.6065,-0.6062,-0.6039,-0.6037,-0.6036,-0.6069,-0.6022,-0.6022,-0.6022,-0.6081,-0.6082,-0.6084,0,0,0,0,0,0,-0.6139,-0.6138,-0.6124,-0.6126,-0.6123,-0.6095,-0.6095,-0.609,-0.6087,-0.6061,-0.6056,-0.6068,-0.6038,-0.6036,-0.6048,-0.6068,-0.6022,-0.6023,-0.6079,-0.6081,-0.6083,-0.6136,0,0,0,0,0,0,-0.6139,-0.6138,-0.6149,-0.6126,-0.6123,-0.6136,-0.6096,-0.609,-0.6088,-0.6083,-0.6063,-0.6058,-0.6036,-0.6048,-0.6048,-0.6067,-0.6023,-0.6077,-0.608,-0.6083,-0.6132,-0.6139,-0.6146,0,0,0,0,0,-0.614,-0.6164,-0.615,-0.6149,-0.6136,-0.6137,-0.6135,-0.6109,-0.609,-0.61,-0.6084,-0.6059,-0.6065,-0.6049,-0.6049,-0.6069,-0.6076,-0.6079,-0.6082,-0.6129,-0.6138,-0.6145,0,0,0,0,0,0,-0.6189,-0.6161,-0.6144,-0.6162,-0.6152,-0.6128,-0.6141,-0.612,-0.6115,-0.6111,-0.608,-0.6075,-0.6092,-0.6081,-0.6064,-0.6096,-0.6067,-0.607,-0.6102,-0.6111,-0.6117,-0.612,-0.6023,0,0,0,0,0,-0.6202,-0.6206,-0.618,-0.6198,-0.6195,-0.6169,-0.6168,-0.615,-0.6138,-0.6134,-0.6118,-0.6108,-0.6108,-0.6109,-0.6107,-0.613,-0.6126,-0.6144,-0.615,-0.6156,-0.616,-0.6172,-0.618,-0.6095,-0.6095,-0.6095,0,0,-0.6229,-0.6214,-0.6218,-0.6208,-0.6198,-0.6203,-0.6165,-0.6171,-0.6175,-0.6135,-0.6145,-0.6133,-0.612,-0.6138,-0.6145,-0.613,-0.6182,-0.6161,-0.6165,-0.6166,-0.6177,-0.6185,-0.6192,-0.6098,-0.6097,-0.6097,0,0,-0.628,-0.6269,-0.6283,-0.6274,-0.626,-0.6243,-0.6247,-0.6226,-0.6217,-0.6227,-0.6198,-0.6201,-0.6202,-0.6194,-0.619,-0.624,-0.6218,-0.6241,-0.6277,-0.6289,-0.6296,-0.6302,-0.6321,-0.6328,-0.6244,-0.6244,-0.6244,0,-0.6315,-0.632,-0.6293,-0.6301,-0.6298,-0.6263,-0.6278,-0.6271,-0.6257,-0.6256,-0.6239,-0.624,-0.6228,-0.6245,-0.6257,-0.6255,-0.6259,-0.6243,-0.6297,-0.6303,-0.6308,-0.6326,-0.6333,-0.6247,-0.6247,-0.6247,-0.6246,0,-0.6364,-0.6369,-0.6382,-0.637,-0.6369,-0.638,-0.6355,-0.6357,-0.6339,-0.6324,-0.6336,-0.6321,-0.6317,-0.6319,-0.6301,-0.6333,-0.6324,-0.6303,-0.6273,-0.6319,-0.6336,-0.6342,-0.6251,-0.625,-0.6249,-0.6249,0,0,-0.6445,-0.6419,-0.6424,-0.6419,-0.6402,-0.6405,-0.6415,-0.6411,-0.6414,-0.6406,-0.6414,-0.6416,-0.6397,-0.6393,-0.6374,-0.6385,-0.6427,-0.6362,-0.6361,-0.6375,-0.6463,-0.648,-0.6488,-0.6412,-0.6413,-0.6414,-0.6464,0,-0.6493,-0.6509,-0.6485,-0.6507,-0.6511,-0.6478,-0.6488,-0.6479,-0.6465,-0.6467,-0.6452,-0.6455,-0.6428,-0.6425,-0.6435,-0.642,-0.6444,-0.6416,-0.642,-0.6421,-0.6425,-0.6496,-0.6513,-0.6561,-0.647,-0.6471,-0.6472,0,-0.655,-0.6546,-0.6568,-0.6551,-0.6552,-0.6561,-0.6556,-0.6558,-0.6547,-0.6537,-0.6533,-0.6511,-0.6521,-0.6492,-0.6505,-0.6487,-0.6487,-0.648,-0.6482,-0.6481,-0.645,-0.6498,-0.6576,-0.6584,-0.6482,-0.6481,-0.648,0,-0.6608,-0.6607,-0.6621,-0.6618,-0.6597,-0.6605,-0.6597,-0.6585,-0.6584,-0.658,-0.658,-0.6577,-0.6575,-0.6574,-0.6552,-0.6533,-0.6569,-0.6538,-0.6561,-0.6562,-0.657,-0.657,-0.6649,-0.657,-0.657,-0.6569,-0.6569,0,-0.6664,-0.6679,-0.6647,-0.6655,-0.6672,-0.6645,-0.6662,-0.6651,-0.6641,-0.6647,-0.6618,-0.6625,-0.6595,-0.6599,-0.6582,-0.6597,-0.6596,-0.6588,-0.6584,-0.6591,-0.6592,-0.6591,-0.6588,-0.6571,-0.6571,-0.6571,-0.657,0,-0.6731,-0.671,-0.6723,-0.6703,-0.6698,-0.6712,-0.6695,-0.6702,-0.6688,-0.6696,-0.6696,-0.6673,-0.6676,-0.6654,-0.6653,-0.6642,-0.6665,-0.6654,-0.6668,-0.6665,-0.669,-0.6689,-0.6772,-0.6782,-0.6696,-0.6697,-0.6697,0,-0.6768,-0.6779,-0.6761,-0.6763,-0.6757,-0.6761,-0.676,-0.6735,-0.6736,-0.6725,-0.6734,-0.6735,-0.6734,-0.6741,-0.6724,-0.6723,-0.6713,-0.6742,-0.6712,-0.672,-0.6714,-0.6714,-0.6716,-0.6749,-0.675,-0.675,-0.6751,0,-0.6837,-0.6827,-0.6827,-0.6824,-0.6825,-0.6822,-0.6816,-0.682,-0.6792,-0.6795,-0.6798,-0.6797,-0.6797,-0.6798,-0.6794,-0.6786,-0.6765,-0.6761,-0.6766,-0.6774,-0.6783,-0.6779,-0.6686,-0.6759,-0.6758,-0.6758,-0.6757,-0.6757,-0.6891,-0.69,-0.6889,-0.6891,-0.6884,-0.688,-0.6887,-0.6873,-0.6875,-0.6873,-0.6857,-0.6864,-0.6854,-0.6847,-0.6841,-0.6846,-0.6832,-0.684,-0.6842,-0.6844,-0.6849,-0.6782,-0.6845,-0.6845,-0.6845,-0.6844,-0.6844,0,-0.6959,-0.6951,-0.6953,-0.6947,-0.6949,-0.6928,-0.6922,-0.6925,-0.6931,-0.6923,-0.6924,-0.6928,-0.6929,-0.6913,-0.6913,-0.692,-0.691,-0.6921,-0.692,-0.6919,-0.6861,-0.6857,-0.6929,-0.6929,-0.6929,-0.6929,-0.6929,-0.6929,-0.6995,-0.7009,-0.6997,-0.7009,-0.7,-0.7006,-0.7004,-0.7001,-0.6995,-0.7001,-0.7003,-0.6992,-0.6982,-0.6981,-0.6982,-0.6977,-0.6979,-0.6993,-0.6985,-0.6931,-0.6923,-0.6915,-0.6911,-0.6994,-0.6994,-0.7043,-0.7044,-0.7044]},{"header":{"parameterUnit":"m.s-1","parameterCategory":1,"la1":30.2991,"la2":30.254,"lo1":-89.0895,"lo2":-89.0444,"dy":0.0017,"dx":0.0017,"nx":28,"ny":28,"refTime":"2025-12-25T03:00:00:Z","depth":0,"parameterNumber":3,"parameterNumberName":"V-component_of_WINDS"},"data":[0,0,0,0,0,0,0,0,0,0,0,0,0,0,0,0,0,0,0,0,0,0,0,0,0,0,0,0,0,0,0,0,0,0,0,0,0,0,0,0,0,0,0,0,0,0,0,0,0,0,0,0,0,0,0,0,0,0,1.4812,1.4812,0,1.4812,1.4812,1.4812,1.4828,1.4829,1.4829,1.483,1.4826,1.4826,1.4825,0,0,0,0,0,0,0,0,0,0,0,0,0,1.4825,1.4824,1.4812,1.4812,1.4812,1.4812,1.4812,1.4812,1.4828,1.4829,1.4829,1.483,1.4826,1.4826,1.4825,0,0,0,0,0,0,0,0,0,0,0,0,0,1.4821,1.4824,1.4812,1.482,1.4821,1.4812,1.4812,1.4812,1.4828,1.4829,1.483,1.483,1.4826,1.4826,1.4825,1.4807,0,0,1.4823,1.4822,0,0,0,0,0,0,0,0,1.4821,1.4821,1.4819,1.482,1.4821,1.4821,1.4815,1.481,1.4828,1.4825,1.483,1.483,1.4824,1.4823,1.4821,1.4807,1.4806,1.4823,1.4822,1.4822,1.4822,0,0,0,0,0,0,0,1.4822,1.4821,1.4812,1.4819,1.482,1.4823,1.4824,1.4814,1.4821,1.4826,1.4827,1.4827,1.4824,1.4822,1.4822,1.4806,1.4823,1.4822,1.4821,1.4821,1.4777,1.4776,0,0,0,0,0,0,1.4821,1.4821,1.4812,1.4812,1.4823,1.4823,1.4823,1.482,1.4821,1.4822,1.4826,1.4828,1.4823,1.4822,1.4821,1.48,1.4822,1.4821,1.4821,1.4777,1.4776,1.4776,0,0,0,0,0,0,1.4821,1.482,1.4812,1.4817,1.4816,1.4822,1.4818,1.482,1.4818,1.4821,1.4822,1.4823,1.4824,1.4823,1.4811,1.48,1.4821,1.482,1.4778,1.4777,1.4776,1.4757,0,0,0,0,0,0,1.4822,1.482,1.4814,1.4817,1.4816,1.4802,1.4818,1.4819,1.4817,1.4819,1.4819,1.4819,1.4824,1.4812,1.481,1.48,1.4819,1.4779,1.4778,1.4776,1.4759,1.4756,1.4753,0,0,0,0,0,1.4822,1.4808,1.4813,1.4812,1.4808,1.4801,1.4801,1.4807,1.4816,1.4809,1.4812,1.4819,1.4802,1.481,1.4808,1.4798,1.478,1.4778,1.4777,1.476,1.4756,1.4753,0,0,0,0,0,0,1.4802,1.4808,1.4815,1.4801,1.4801,1.4804,1.4796,1.4803,1.4799,1.4801,1.4809,1.4808,1.4795,1.4795,1.4804,1.478,1.4792,1.479,1.478,1.4777,1.4774,1.4774,1.4819,0,0,0,0,0,1.4797,1.4792,1.4797,1.4784,1.4784,1.479,1.4787,1.4792,1.4792,1.4791,1.4793,1.4791,1.4785,1.4781,1.4776,1.4759,1.4759,1.4751,1.4748,1.4746,1.4743,1.4734,1.4731,1.477,1.477,1.477,0,0,1.4784,1.4787,1.4783,1.478,1.4781,1.4774,1.4789,1.4782,1.4777,1.479,1.4779,1.478,1.4779,1.4764,1.4758,1.4764,1.4733,1.4744,1.4742,1.4741,1.4732,1.4729,1.4725,1.4769,1.4769,1.477,0,0,1.4759,1.476,1.475,1.4751,1.4751,1.4756,1.4753,1.4756,1.4757,1.4747,1.4756,1.475,1.474,1.4739,1.4737,1.4712,1.4718,1.471,1.4694,1.4685,1.4682,1.4679,1.467,1.4666,1.4708,1.4708,1.4708,0,1.4743,1.4735,1.4744,1.4736,1.4734,1.4747,1.4736,1.4736,1.4734,1.4733,1.474,1.4728,1.4728,1.4713,1.4707,1.4705,1.4702,1.4709,1.4682,1.4679,1.4677,1.4668,1.4664,1.4707,1.4707,1.4707,1.4707,0,1.4715,1.4709,1.4701,1.47,1.4698,1.4688,1.4695,1.4692,1.4698,1.4701,1.469,1.4691,1.4686,1.4683,1.4688,1.4669,1.4673,1.4681,1.4693,1.4672,1.4664,1.466,1.4705,1.4705,1.4706,1.4706,0,0,1.4676,1.4681,1.4678,1.4678,1.468,1.4675,1.4667,1.4663,1.466,1.4659,1.4651,1.4643,1.465,1.4648,1.4653,1.4646,1.4625,1.4655,1.4655,1.4649,1.4604,1.4597,1.4593,1.463,1.463,1.4629,1.4604,0,1.465,1.4637,1.4645,1.4629,1.4624,1.4636,1.4629,1.4629,1.4632,1.4627,1.463,1.4624,1.4635,1.4634,1.4627,1.4629,1.4616,1.4631,1.4622,1.4622,1.4621,1.4589,1.4582,1.4558,1.4601,1.46,1.46,0,1.4619,1.4618,1.4602,1.4606,1.4603,1.4596,1.4594,1.459,1.459,1.4593,1.4591,1.4598,1.4589,1.4602,1.4589,1.4599,1.4596,1.4597,1.4596,1.4595,1.4609,1.4586,1.455,1.4546,1.4595,1.4595,1.4596,0,1.4591,1.4585,1.4575,1.4575,1.4579,1.4574,1.4575,1.4576,1.4574,1.4572,1.457,1.4566,1.4564,1.4561,1.4567,1.4576,1.4553,1.4567,1.4554,1.4554,1.4548,1.4548,1.451,1.4547,1.4547,1.4548,1.4548,0,1.4562,1.4551,1.4563,1.4557,1.4545,1.4555,1.4543,1.4546,1.4547,1.4541,1.4551,1.4545,1.4554,1.4548,1.4553,1.4541,1.454,1.4542,1.4543,1.454,1.454,1.4538,1.4539,1.4547,1.4547,1.4547,1.4547,0,1.4528,1.4536,1.4526,1.4531,1.4532,1.4523,1.4527,1.4521,1.4526,1.4518,1.4517,1.4523,1.4517,1.4523,1.4517,1.452,1.4505,1.4509,1.4505,1.4506,1.4493,1.4494,1.4451,1.4446,1.4487,1.4487,1.4487,0,1.4508,1.4501,1.4506,1.4503,1.4504,1.4499,1.4497,1.4506,1.4504,1.4504,1.4498,1.4493,1.449,1.448,1.4483,1.4479,1.4482,1.4468,1.4481,1.4479,1.4481,1.4481,1.448,1.4464,1.4464,1.4464,1.4463,0,1.4472,1.4477,1.4474,1.4472,1.4469,1.4468,1.4468,1.4465,1.4475,1.4471,1.4466,1.4463,1.4458,1.4453,1.445,1.445,1.4458,1.4459,1.4456,1.4453,1.4451,1.4451,1.4496,1.446,1.446,1.446,1.4461,1.4461,1.4445,1.4439,1.4441,1.4438,1.4439,1.4438,1.4433,1.4437,1.4433,1.443,1.4436,1.4429,1.443,1.4427,1.4427,1.4421,1.4427,1.4422,1.4421,1.442,1.4417,1.4453,1.442,1.442,1.4421,1.4421,1.4421,0,1.4409,1.4411,1.4408,1.4408,1.4405,1.4414,1.4414,1.4411,1.4405,1.4405,1.4402,1.4396,1.4392,1.4395,1.4391,1.4386,1.4389,1.4384,1.4384,1.4384,1.4413,1.4415,1.4382,1.4382,1.4382,1.4382,1.4382,1.4382,1.4389,1.438,1.4384,1.4375,1.4378,1.4372,1.4371,1.4371,1.4371,1.4364,1.4361,1.4364,1.4365,1.4362,1.4358,1.4359,1.4357,1.435,1.4352,1.4379,1.4382,1.4386,1.4389,1.435,1.435,1.4325,1.4324,1.4324]}]]